DLH100Y KDFW-LOWW

Flight info

Callsign DLH100Y
Flight time N/A
Altitude 35000
Route MRSSH3 MRSSH MLU STEIT THRSR HRTWL Q54 NUTZE EARZZ Q131 KALDA Q167 TOPRR VALCO KYSKY Q430 FLAPE KURLY KANNI N97B SUPRY 4650N 4840N 4830N 4820N 4815N UMLER UN734 UMOXA KORER OBATO RESMI TEPRI POGZI GELTA LUVAL LUPEN KUNOD VAVOR INPUL NEMAL
Aircraft A346/H-SDE2E3FGHIJ3J4J5M1RWXY/LB1D1

Departure

Time N/A
Airport Dallas Fort Worth International Airport (KDFW)

Arrival

Time 2026-04-26 00:02
Airport Vienna International Airport (LOWW)
Time Latitude Longitude Altitude Speed Heading
2026-04-25 15:32 35.61167 -78.37796 34913 ft 516 kts 65°
2026-04-25 15:32 35.62580 -78.33622 34913 ft 517 kts 65°
2026-04-25 15:33 35.66699 -78.21421 34914 ft 518 kts 65°
2026-04-25 15:33 35.69453 -78.13233 34920 ft 518 kts 65°
2026-04-25 15:34 35.72212 -78.05011 34922 ft 519 kts 65°
2026-04-25 15:34 35.74495 -77.98187 34922 ft 518 kts 65°
2026-04-25 15:35 35.79053 -77.84514 34914 ft 518 kts 65°
2026-04-25 15:36 35.82900 -77.72030 34912 ft 520 kts 71°
2026-04-25 15:36 35.84647 -77.63365 34912 ft 521 kts 78°
2026-04-25 15:37 35.85641 -77.54484 34915 ft 522 kts 83°
2026-04-25 15:37 35.86352 -77.45561 34914 ft 521 kts 83°
2026-04-25 15:38 35.87061 -77.36652 34913 ft 521 kts 83°
2026-04-25 15:38 35.87775 -77.27805 34914 ft 521 kts 83°
2026-04-25 15:39 35.88491 -77.18899 34913 ft 521 kts 83°
2026-04-25 15:39 35.89201 -77.09996 34913 ft 520 kts 83°
2026-04-25 15:40 35.89789 -77.02541 34914 ft 520 kts 83°
2026-04-25 15:40 35.91522 -76.92476 34909 ft 515 kts 65°
2026-04-25 15:41 35.95176 -76.84966 34915 ft 508 kts 46°
2026-04-25 15:41 36.00423 -76.79266 34924 ft 500 kts 29°
2026-04-25 15:42 36.06490 -76.75106 34924 ft 498 kts 24°
2026-04-25 15:42 36.12611 -76.71091 34922 ft 498 kts 24°
2026-04-25 15:43 36.18722 -76.67026 34922 ft 498 kts 24°
2026-04-25 15:43 36.24822 -76.62933 34922 ft 498 kts 24°
2026-04-25 15:44 36.30921 -76.58822 34920 ft 498 kts 24°
2026-04-25 15:44 36.37005 -76.54712 34914 ft 498 kts 24°
2026-04-25 15:45 36.43093 -76.50590 34914 ft 498 kts 24°
2026-04-25 15:45 36.48146 -76.47163 34913 ft 498 kts 25°
2026-04-25 15:46 36.55262 -76.42328 34913 ft 498 kts 24°
2026-04-25 15:46 36.61312 -76.38209 34913 ft 498 kts 24°
2026-04-25 15:47 36.67407 -76.34053 34913 ft 498 kts 24°
2026-04-25 15:47 36.73514 -76.29880 34913 ft 499 kts 24°
2026-04-25 15:48 36.79600 -76.25714 34918 ft 499 kts 24°
2026-04-25 15:48 36.85689 -76.21539 34921 ft 499 kts 24°
2026-04-25 15:49 36.91781 -76.17353 34910 ft 499 kts 24°
2026-04-25 15:49 36.97869 -76.13162 34905 ft 500 kts 24°
2026-04-25 15:50 37.03968 -76.08955 34904 ft 500 kts 24°
2026-04-25 15:50 37.10070 -76.04745 34905 ft 500 kts 23°
2026-04-25 15:51 37.15243 -76.01567 34912 ft 497 kts 19°
2026-04-25 15:51 37.22617 -75.97437 34926 ft 495 kts 19°
2026-04-25 15:52 37.28910 -75.93926 34930 ft 494 kts 19°
2026-04-25 15:52 37.35150 -75.90428 34943 ft 495 kts 19°
2026-04-25 15:53 37.41438 -75.86891 34950 ft 495 kts 19°
2026-04-25 15:53 37.47733 -75.83340 34951 ft 496 kts 19°
2026-04-25 15:54 37.54034 -75.79780 34957 ft 496 kts 19°
2026-04-25 15:54 37.60321 -75.76219 34957 ft 496 kts 19°
2026-04-25 15:55 37.66619 -75.72647 34960 ft 496 kts 19°
2026-04-25 15:55 37.72923 -75.69064 34962 ft 496 kts 19°
2026-04-25 15:56 37.79216 -75.65476 34967 ft 497 kts 19°
2026-04-25 15:56 37.85382 -75.61401 34973 ft 501 kts 25°
2026-04-25 15:57 37.91256 -75.56563 34985 ft 505 kts 29°
2026-04-25 15:57 37.97031 -75.51495 34986 ft 505 kts 29°
2026-04-25 15:58 38.02810 -75.46427 34993 ft 504 kts 29°
2026-04-25 15:58 38.08562 -75.41277 34999 ft 506 kts 31°
2026-04-25 15:59 38.14206 -75.35929 35010 ft 506 kts 31°
2026-04-25 15:59 38.19845 -75.30572 35008 ft 506 kts 31°
2026-04-25 16:00 38.23598 -75.27018 35013 ft 506 kts 31°
2026-04-25 16:00 38.31114 -75.19899 35012 ft 505 kts 31°
2026-04-25 16:01 38.36749 -75.14554 35021 ft 505 kts 31°
2026-04-25 16:01 38.42386 -75.09194 35022 ft 504 kts 31°
2026-04-25 16:02 38.47951 -75.03700 35026 ft 507 kts 34°
2026-04-25 16:02 38.53293 -74.97806 35023 ft 506 kts 34°
2026-04-25 16:03 38.58731 -74.92102 35033 ft 505 kts 33°
2026-04-25 16:03 38.64190 -74.86442 35037 ft 505 kts 33°
2026-04-25 16:04 38.69645 -74.80769 35043 ft 505 kts 33°
2026-04-25 16:04 38.75079 -74.75055 35042 ft 506 kts 34°
2026-04-25 16:05 38.80342 -74.69002 35050 ft 508 kts 36°
2026-04-25 16:06 38.88156 -74.59823 35050 ft 507 kts 36°
2026-04-25 16:06 38.93371 -74.53710 35052 ft 506 kts 35°
2026-04-25 16:07 38.98723 -74.47842 35052 ft 504 kts 33°
2026-04-25 16:07 39.04090 -74.42079 35053 ft 504 kts 33°
2026-04-25 16:08 39.09470 -74.36283 35063 ft 504 kts 33°
2026-04-25 16:08 39.13977 -74.31405 35066 ft 504 kts 33°
2026-04-25 16:09 39.20198 -74.24655 35073 ft 503 kts 33°
2026-04-25 16:09 39.24685 -74.19779 35071 ft 503 kts 33°
2026-04-25 16:10 39.29127 -74.14943 35078 ft 503 kts 33°
2026-04-25 16:10 39.35376 -74.08123 35076 ft 502 kts 33°
2026-04-25 16:11 39.40690 -74.02309 35085 ft 501 kts 33°
2026-04-25 16:11 39.46010 -73.96474 35080 ft 500 kts 33°
2026-04-25 16:12 39.51316 -73.90643 35105 ft 499 kts 33°
2026-04-25 16:12 39.56608 -73.84816 35107 ft 499 kts 33°
2026-04-25 16:13 39.61902 -73.78973 35114 ft 499 kts 33°
2026-04-25 16:13 39.67195 -73.73117 35118 ft 499 kts 33°
2026-04-25 16:14 39.72490 -73.67245 35116 ft 499 kts 33°
2026-04-25 16:14 39.77774 -73.61373 35118 ft 500 kts 33°
2026-04-25 16:15 39.82987 -73.55366 35117 ft 503 kts 36°
2026-04-25 16:15 39.87813 -73.48658 35123 ft 510 kts 43°
2026-04-25 16:16 39.92291 -73.41463 35143 ft 511 kts 44°
2026-04-25 16:16 39.96725 -73.34224 35149 ft 511 kts 44°
2026-04-25 16:17 40.01181 -73.26969 35153 ft 510 kts 44°
2026-04-25 16:17 40.05608 -73.19755 35148 ft 508 kts 43°
2026-04-25 16:18 40.10103 -73.12753 35155 ft 503 kts 39°
2026-04-25 16:18 40.14955 -73.06175 35154 ft 500 kts 37°
2026-04-25 16:19 40.19823 -72.99697 35155 ft 499 kts 37°
2026-04-25 16:19 40.24694 -72.93186 35155 ft 499 kts 37°
2026-04-25 16:20 40.31963 -72.83422 35162 ft 498 kts 37°
2026-04-25 16:21 40.39206 -72.73653 35163 ft 497 kts 37°
2026-04-25 16:21 40.44018 -72.67145 35163 ft 497 kts 37°
2026-04-25 16:22 40.48799 -72.60667 35163 ft 496 kts 37°
2026-04-25 16:22 40.53602 -72.54142 35169 ft 496 kts 37°
2026-04-25 16:23 40.58398 -72.47613 35171 ft 495 kts 37°
2026-04-25 16:23 40.63186 -72.41080 35172 ft 495 kts 37°
2026-04-25 16:24 40.67970 -72.34535 35172 ft 496 kts 37°
2026-04-25 16:24 40.72654 -72.27816 35171 ft 501 kts 42°
2026-04-25 16:25 40.76780 -72.20301 35171 ft 511 kts 50°
2026-04-25 16:25 40.80192 -72.11970 35172 ft 520 kts 57°
2026-04-25 16:26 40.82835 -72.02980 35174 ft 527 kts 63°
2026-04-25 16:26 40.85204 -71.93799 35174 ft 528 kts 63°
2026-04-25 16:27 40.87575 -71.84633 35177 ft 526 kts 62°
2026-04-25 16:27 40.89947 -71.75550 35181 ft 526 kts 62°
2026-04-25 16:28 40.92334 -71.66387 35181 ft 526 kts 62°
2026-04-25 16:28 40.94728 -71.57231 35176 ft 526 kts 62°
2026-04-25 16:29 40.97145 -71.48103 35173 ft 525 kts 62°
2026-04-25 16:29 40.99549 -71.38974 35172 ft 525 kts 62°
2026-04-25 16:30 41.01738 -71.29676 35173 ft 529 kts 65°
2026-04-25 16:30 41.03741 -71.20285 35171 ft 527 kts 64°
2026-04-25 16:31 41.06174 -71.11186 35172 ft 519 kts 58°
2026-04-25 16:31 41.09274 -71.02640 35172 ft 508 kts 51°
2026-04-25 16:32 41.12958 -70.94742 35172 ft 499 kts 45°
2026-04-25 16:32 41.16958 -70.87205 35167 ft 497 kts 44°
2026-04-25 16:33 41.20933 -70.79751 35164 ft 497 kts 44°
2026-04-25 16:33 41.24916 -70.72226 35163 ft 497 kts 44°
2026-04-25 16:34 41.28886 -70.64690 35164 ft 497 kts 45°
2026-04-25 16:34 41.32843 -70.57155 35163 ft 496 kts 44°
2026-04-25 16:35 41.36794 -70.49609 35163 ft 496 kts 44°
2026-04-25 16:35 41.40713 -70.42110 35164 ft 496 kts 44°
2026-04-25 16:36 41.44647 -70.34558 35163 ft 494 kts 44°
2026-04-25 16:36 41.48562 -70.27026 35163 ft 494 kts 44°
2026-04-25 16:37 41.52484 -70.19467 35155 ft 494 kts 44°
2026-04-25 16:37 41.56393 -70.11910 35154 ft 494 kts 44°
2026-04-25 16:38 41.60293 -70.04347 35154 ft 493 kts 44°
2026-04-25 16:38 41.64181 -69.96796 35162 ft 493 kts 44°
2026-04-25 16:39 41.68057 -69.89243 35162 ft 492 kts 44°
2026-04-25 16:39 41.71891 -69.81730 35161 ft 493 kts 45°
2026-04-25 16:40 41.74885 -69.75079 35162 ft 501 kts 50°
2026-04-25 16:40 41.78442 -69.65190 35163 ft 508 kts 55°
2026-04-25 16:41 41.81329 -69.56531 35163 ft 509 kts 55°
2026-04-25 16:41 41.85677 -69.43472 35163 ft 511 kts 55°
2026-04-25 16:42 41.88573 -69.34766 35163 ft 511 kts 55°
2026-04-25 16:42 41.91468 -69.26041 35162 ft 511 kts 55°
2026-04-25 16:43 41.94365 -69.17295 35162 ft 512 kts 55°
2026-04-25 16:43 41.97258 -69.08526 35163 ft 513 kts 55°
2026-04-25 16:44 42.00141 -68.99756 35163 ft 513 kts 56°
2026-04-25 16:44 42.03028 -68.90966 35158 ft 513 kts 56°
2026-04-25 16:45 42.05904 -68.82159 35154 ft 514 kts 56°
2026-04-25 16:45 42.08781 -68.73318 35154 ft 515 kts 56°
2026-04-25 16:46 42.11660 -68.64446 35149 ft 515 kts 57°
2026-04-25 16:46 42.13562 -68.58570 35138 ft 515 kts 57°
2026-04-25 16:47 42.17370 -68.46764 35133 ft 516 kts 57°
2026-04-25 16:47 42.20231 -68.37858 35127 ft 516 kts 57°
2026-04-25 16:48 42.23082 -68.28959 35125 ft 516 kts 57°
2026-04-25 16:48 42.25929 -68.20040 35390 ft 513 kts 57°
2026-04-25 16:49 42.27319 -68.15655 36050 ft 501 kts 57°
2026-04-25 16:49 42.28685 -68.11355 36576 ft 493 kts 58°
2026-04-25 16:49 42.30040 -68.07101 36839 ft 492 kts 58°
2026-04-25 16:49 42.31389 -68.02859 37053 ft 490 kts 58°
2026-04-25 16:50 42.34054 -67.94437 37115 ft 486 kts 58°
2026-04-25 16:50 42.36701 -67.86036 37110 ft 485 kts 59°
2026-04-25 16:51 42.39338 -67.77649 37110 ft 489 kts 59°
2026-04-25 16:51 42.41126 -67.71951 37109 ft 493 kts 59°
2026-04-25 16:52 42.44715 -67.60468 37076 ft 499 kts 59°
2026-04-25 16:52 42.47409 -67.51803 37073 ft 499 kts 60°
2026-04-25 16:53 42.51441 -67.38783 37065 ft 498 kts 60°
2026-04-25 16:54 42.54113 -67.30125 37065 ft 497 kts 60°
2026-04-25 16:54 42.56776 -67.21466 37061 ft 497 kts 60°
2026-04-25 16:55 42.58555 -67.15664 37056 ft 497 kts 60°
2026-04-25 16:55 42.61634 -67.05589 37055 ft 496 kts 61°
2026-04-25 16:56 42.64188 -66.96888 37057 ft 497 kts 63°
2026-04-25 16:56 42.66564 -66.88036 37050 ft 498 kts 64°
2026-04-25 16:57 42.68917 -66.79177 37050 ft 498 kts 64°
2026-04-25 16:57 42.71268 -66.70310 37047 ft 498 kts 64°
2026-04-25 16:58 42.73617 -66.61431 37047 ft 497 kts 64°
2026-04-25 16:58 42.75955 -66.52559 37042 ft 497 kts 64°
2026-04-25 16:59 42.78287 -66.43685 37044 ft 497 kts 65°
2026-04-25 16:59 42.80611 -66.34805 37035 ft 497 kts 65°
2026-04-25 17:00 42.82928 -66.25918 37033 ft 497 kts 65°
2026-04-25 17:00 42.85219 -66.17103 37033 ft 497 kts 65°
2026-04-25 17:01 42.87538 -66.08144 37037 ft 497 kts 65°
2026-04-25 17:01 42.89812 -65.99323 37038 ft 496 kts 65°
2026-04-25 17:02 42.92095 -65.90457 37041 ft 494 kts 66°
2026-04-25 17:02 42.94364 -65.81590 37032 ft 494 kts 66°
2026-04-25 17:03 42.96626 -65.72710 37041 ft 494 kts 66°
2026-04-25 17:03 42.98881 -65.63835 37033 ft 494 kts 66°
2026-04-25 17:04 43.01122 -65.54977 37033 ft 494 kts 66°
2026-04-25 17:04 43.03365 -65.46084 37040 ft 493 kts 66°
2026-04-25 17:05 43.05592 -65.37213 37033 ft 493 kts 66°
2026-04-25 17:05 43.08927 -65.23876 37041 ft 493 kts 66°
2026-04-25 17:06 43.11139 -65.14987 37036 ft 494 kts 67°
2026-04-25 17:06 43.13361 -65.06025 37040 ft 497 kts 67°
2026-04-25 17:07 43.15578 -64.97045 37033 ft 497 kts 67°
2026-04-25 17:07 43.17743 -64.88237 37032 ft 497 kts 67°
2026-04-25 17:08 43.19938 -64.79281 37013 ft 497 kts 67°
2026-04-25 17:08 43.22126 -64.70309 37009 ft 496 kts 67°
2026-04-25 17:09 43.24318 -64.61296 37009 ft 496 kts 68°
2026-04-25 17:09 43.26499 -64.52284 37003 ft 496 kts 68°
2026-04-25 17:10 43.28625 -64.43470 37008 ft 496 kts 68°
2026-04-25 17:10 43.30800 -64.34413 37008 ft 495 kts 68°
2026-04-25 17:11 43.32943 -64.25454 36993 ft 495 kts 68°
2026-04-25 17:11 43.35097 -64.16418 36991 ft 494 kts 68°
2026-04-25 17:12 43.37243 -64.07380 36990 ft 494 kts 68°
2026-04-25 17:12 43.39365 -63.98399 36990 ft 494 kts 68°
2026-04-25 17:13 43.41130 -63.90915 36984 ft 493 kts 68°
2026-04-25 17:13 43.43594 -63.80404 36976 ft 493 kts 69°
2026-04-25 17:14 43.45692 -63.71420 36983 ft 493 kts 69°
2026-04-25 17:14 43.47776 -63.62459 36978 ft 493 kts 69°
2026-04-25 17:15 43.49865 -63.53445 36979 ft 493 kts 69°
2026-04-25 17:15 43.51945 -63.44429 36988 ft 493 kts 69°
2026-04-25 17:16 43.54022 -63.35393 36957 ft 493 kts 69°
2026-04-25 17:16 43.56088 -63.26362 36953 ft 493 kts 69°
2026-04-25 17:17 43.58146 -63.17330 36953 ft 493 kts 69°
2026-04-25 17:17 43.60199 -63.08288 36953 ft 493 kts 69°
2026-04-25 17:18 43.62225 -62.99324 36931 ft 493 kts 69°
2026-04-25 17:18 43.64264 -62.90267 36919 ft 492 kts 69°
2026-04-25 17:19 43.66293 -62.81210 36929 ft 492 kts 69°
2026-04-25 17:19 43.68314 -62.72155 36917 ft 492 kts 70°
2026-04-25 17:20 43.70327 -62.63103 36908 ft 492 kts 70°
2026-04-25 17:20 43.72329 -62.54053 36914 ft 491 kts 70°
2026-04-25 17:21 43.74325 -62.44996 36911 ft 491 kts 70°
2026-04-25 17:21 43.76310 -62.35949 36914 ft 491 kts 70°
2026-04-25 17:22 43.77957 -62.28412 36923 ft 490 kts 70°
2026-04-25 17:22 43.80262 -62.17827 36917 ft 490 kts 70°
2026-04-25 17:23 43.82221 -62.08779 36913 ft 490 kts 70°
2026-04-25 17:23 43.84159 -61.99796 36902 ft 490 kts 70°
2026-04-25 17:24 43.86115 -61.90689 36903 ft 490 kts 70°
2026-04-25 17:24 43.88041 -61.81681 36895 ft 490 kts 70°
2026-04-25 17:25 43.89977 -61.72588 36859 ft 490 kts 71°
2026-04-25 17:25 43.91900 -61.63520 36846 ft 490 kts 71°
2026-04-25 17:26 43.93819 -61.54426 36844 ft 490 kts 71°
2026-04-25 17:26 43.95732 -61.45324 36841 ft 490 kts 71°
2026-04-25 17:27 43.97636 -61.36226 36833 ft 491 kts 71°
2026-04-25 17:27 43.98908 -61.30123 36813 ft 491 kts 71°
2026-04-25 17:28 44.01435 -61.17947 36799 ft 490 kts 71°
2026-04-25 17:28 44.03313 -61.08847 36796 ft 489 kts 71°
2026-04-25 17:29 44.05182 -60.99756 36795 ft 489 kts 71°
2026-04-25 17:29 44.07048 -60.90633 36794 ft 489 kts 71°
2026-04-25 17:30 44.08902 -60.81525 36787 ft 489 kts 71°
2026-04-25 17:30 44.10752 -60.72400 36786 ft 489 kts 71°
2026-04-25 17:31 44.12605 -60.63219 36786 ft 490 kts 71°
2026-04-25 17:31 44.14441 -60.54078 36785 ft 490 kts 72°
2026-04-25 17:32 44.16257 -60.44999 36786 ft 490 kts 72°
2026-04-25 17:32 44.18110 -60.35691 36780 ft 490 kts 72°
2026-04-25 17:33 44.19928 -60.26517 36777 ft 490 kts 72°
2026-04-25 17:33 44.21739 -60.17332 36776 ft 490 kts 72°
2026-04-25 17:34 44.23531 -60.08199 36774 ft 491 kts 72°
2026-04-25 17:34 44.25326 -59.99011 36777 ft 491 kts 72°
2026-04-25 17:35 44.27114 -59.89813 36775 ft 491 kts 72°
2026-04-25 17:35 44.28896 -59.80601 36777 ft 491 kts 72°
2026-04-25 17:36 44.30671 -59.71389 36775 ft 491 kts 72°
2026-04-25 17:36 44.32437 -59.62171 36767 ft 490 kts 72°
2026-04-25 17:37 44.34196 -59.52952 36767 ft 490 kts 72°
2026-04-25 17:37 44.35947 -59.43727 36766 ft 490 kts 72°
2026-04-25 17:38 44.37114 -59.37552 36766 ft 490 kts 72°
2026-04-25 17:38 44.39428 -59.25262 36767 ft 490 kts 73°
2026-04-25 17:39 44.41156 -59.16021 36762 ft 490 kts 73°
2026-04-25 17:39 44.42876 -59.06781 36758 ft 490 kts 73°
2026-04-25 17:40 44.44300 -58.99098 36759 ft 490 kts 73°
2026-04-25 17:40 44.46008 -58.89836 36757 ft 490 kts 73°
2026-04-25 17:41 44.47711 -58.80562 36757 ft 490 kts 73°
2026-04-25 17:41 44.49678 -58.69786 36749 ft 491 kts 73°
2026-04-25 17:42 44.51082 -58.62060 36748 ft 491 kts 73°
2026-04-25 17:42 44.52761 -58.52774 36748 ft 491 kts 73°
2026-04-25 17:43 44.54434 -58.43470 36740 ft 491 kts 73°
2026-04-25 17:43 44.56100 -58.34162 36739 ft 491 kts 73°
2026-04-25 17:44 44.57758 -58.24853 36735 ft 491 kts 73°
2026-04-25 17:44 44.59411 -58.15527 36731 ft 492 kts 73°
2026-04-25 17:45 44.60791 -58.07701 36730 ft 492 kts 73°
2026-04-25 17:45 44.62695 -57.96855 36722 ft 492 kts 73°
2026-04-25 17:46 44.64326 -57.87509 36720 ft 492 kts 74°
2026-04-25 17:46 44.65951 -57.78141 36716 ft 492 kts 74°
2026-04-25 17:47 44.67555 -57.68842 36711 ft 492 kts 74°
2026-04-25 17:47 44.69163 -57.59476 36706 ft 492 kts 74°
2026-04-25 17:48 44.71559 -57.45424 36699 ft 492 kts 74°
2026-04-25 17:49 44.73147 -57.36055 36690 ft 492 kts 74°
2026-04-25 17:49 44.74730 -57.26661 36687 ft 492 kts 75°
2026-04-25 17:50 44.76304 -57.17269 36681 ft 492 kts 75°
2026-04-25 17:50 44.77868 -57.07880 36673 ft 492 kts 75°
2026-04-25 17:51 44.79418 -56.98539 36677 ft 492 kts 75°
2026-04-25 17:51 44.80971 -56.89120 36664 ft 493 kts 75°
2026-04-25 17:52 44.82518 -56.79681 36664 ft 493 kts 75°
2026-04-25 17:52 44.84054 -56.70255 36657 ft 493 kts 75°
2026-04-25 17:53 44.85588 -56.60795 36655 ft 493 kts 75°
2026-04-25 17:53 44.87111 -56.51347 36649 ft 493 kts 75°
2026-04-25 17:54 44.88628 -56.41889 36646 ft 493 kts 75°
2026-04-25 17:54 44.90136 -56.32430 36639 ft 493 kts 75°
2026-04-25 17:55 44.91636 -56.22964 36636 ft 493 kts 75°
2026-04-25 17:55 44.93117 -56.13569 36632 ft 494 kts 75°
2026-04-25 17:56 44.94605 -56.04069 36585 ft 493 kts 76°
2026-04-25 17:56 44.96082 -55.94595 36546 ft 494 kts 76°
2026-04-25 17:57 44.97556 -55.85085 36555 ft 495 kts 76°
2026-04-25 17:57 44.99020 -55.75572 36543 ft 495 kts 76°
2026-04-25 17:58 45.00474 -55.66070 36547 ft 495 kts 76°
2026-04-25 17:58 45.01922 -55.56549 36543 ft 495 kts 76°
2026-04-25 17:59 45.03365 -55.47007 36544 ft 495 kts 76°
2026-04-25 17:59 45.04798 -55.37474 36532 ft 495 kts 76°
2026-04-25 18:00 45.06224 -55.27931 36533 ft 495 kts 76°
2026-04-25 18:00 45.07643 -55.18387 36533 ft 495 kts 76°
2026-04-25 18:01 45.09056 -55.08813 36529 ft 496 kts 76°
2026-04-25 18:01 45.10449 -54.99309 36529 ft 496 kts 76°
2026-04-25 18:02 45.11847 -54.89724 36524 ft 496 kts 77°
2026-04-25 18:02 45.13237 -54.80128 36524 ft 496 kts 77°
2026-04-25 18:03 45.14620 -54.70526 36523 ft 496 kts 77°
2026-04-25 18:03 45.15993 -54.60924 36515 ft 497 kts 77°
2026-04-25 18:04 45.17361 -54.51296 36515 ft 497 kts 77°
2026-04-25 18:04 45.18719 -54.41689 36515 ft 497 kts 77°
2026-04-25 18:05 45.20071 -54.32053 36511 ft 497 kts 77°
2026-04-25 18:05 45.21411 -54.22438 36506 ft 497 kts 77°
2026-04-25 18:06 45.22736 -54.12868 36506 ft 496 kts 77°
2026-04-25 18:06 45.24062 -54.03234 36506 ft 496 kts 77°
2026-04-25 18:07 45.25382 -53.93595 36499 ft 497 kts 78°
2026-04-25 18:07 45.26700 -53.83896 36491 ft 502 kts 78°
2026-04-25 18:08 45.28018 -53.74119 36495 ft 504 kts 78°
2026-04-25 18:08 45.29332 -53.64308 36496 ft 506 kts 78°
2026-04-25 18:09 45.30645 -53.54442 36496 ft 508 kts 78°
2026-04-25 18:09 45.31955 -53.44536 36488 ft 510 kts 78°
2026-04-25 18:10 45.33256 -53.34619 36486 ft 510 kts 78°
2026-04-25 18:10 45.34659 -53.23815 36482 ft 512 kts 78°
2026-04-25 18:11 45.35951 -53.13822 36486 ft 514 kts 78°
2026-04-25 18:11 45.37243 -53.03783 36480 ft 516 kts 78°
2026-04-25 18:12 45.38529 -52.93701 36477 ft 517 kts 78°
2026-04-25 18:12 45.39804 -52.83619 36433 ft 517 kts 78°
2026-04-25 18:13 45.41062 -52.73593 36419 ft 518 kts 78°
2026-04-25 18:13 45.42322 -52.63477 36417 ft 518 kts 78°
2026-04-25 18:14 45.44197 -52.48284 36454 ft 518 kts 78°
2026-04-25 18:14 45.45435 -52.38163 36459 ft 518 kts 79°
2026-04-25 18:15 45.46666 -52.28008 36459 ft 519 kts 79°
2026-04-25 18:15 45.47883 -52.17876 36457 ft 519 kts 79°
2026-04-25 18:16 45.49105 -52.07715 36459 ft 518 kts 78°
2026-04-25 18:17 45.51860 -51.92819 36431 ft 517 kts 69°
2026-04-25 18:17 45.54342 -51.83173 36424 ft 517 kts 68°
2026-04-25 18:18 45.56840 -51.73602 36423 ft 517 kts 68°
2026-04-25 18:18 45.59337 -51.63950 36421 ft 518 kts 69°
2026-04-25 18:19 45.61824 -51.54273 36418 ft 518 kts 69°
2026-04-25 18:19 45.64297 -51.44595 36421 ft 518 kts 69°
2026-04-25 18:20 45.66766 -51.34894 36415 ft 519 kts 69°
2026-04-25 18:20 45.69230 -51.25172 36421 ft 519 kts 69°
2026-04-25 18:21 45.71683 -51.15448 36422 ft 520 kts 69°
2026-04-25 18:21 45.74135 -51.05687 36421 ft 520 kts 69°
2026-04-25 18:22 45.76585 -50.95894 36421 ft 521 kts 70°
2026-04-25 18:22 45.79023 -50.86104 36424 ft 521 kts 70°
2026-04-25 18:23 45.81455 -50.76295 36419 ft 522 kts 70°
2026-04-25 18:23 45.83866 -50.66532 36420 ft 522 kts 70°
2026-04-25 18:24 45.86283 -50.56700 36421 ft 522 kts 70°
2026-04-25 18:24 45.88716 -50.46761 36421 ft 522 kts 71°
2026-04-25 18:25 45.91102 -50.36968 36424 ft 522 kts 71°
2026-04-25 18:25 45.93494 -50.27104 36431 ft 522 kts 71°
2026-04-25 18:26 45.95879 -50.17226 36431 ft 522 kts 71°
2026-04-25 18:26 45.98253 -50.07344 36431 ft 522 kts 71°
2026-04-25 18:27 46.00630 -49.97462 36432 ft 522 kts 70°
2026-04-25 18:27 46.03101 -49.87636 36437 ft 522 kts 70°
2026-04-25 18:28 46.05580 -49.77813 36439 ft 522 kts 70°
2026-04-25 18:28 46.08043 -49.67971 36439 ft 521 kts 70°
2026-04-25 18:29 46.11300 -49.54857 36438 ft 522 kts 71°
2026-04-25 18:30 46.16168 -49.35101 36441 ft 522 kts 71°
2026-04-25 18:30 46.18591 -49.25201 36448 ft 522 kts 71°
2026-04-25 18:31 46.20986 -49.15373 36447 ft 522 kts 71°
2026-04-25 18:31 46.23389 -49.05466 36448 ft 522 kts 71°
2026-04-25 18:32 46.25788 -48.95534 36448 ft 523 kts 72°
2026-04-25 18:32 46.28182 -48.85574 36451 ft 523 kts 72°
2026-04-25 18:33 46.30563 -48.75623 36455 ft 524 kts 72°
2026-04-25 18:33 46.32944 -48.65633 36456 ft 524 kts 72°
2026-04-25 18:34 46.35319 -48.55617 36459 ft 525 kts 72°
2026-04-25 18:34 46.37686 -48.45590 36456 ft 526 kts 73°
2026-04-25 18:35 46.40050 -48.35530 36466 ft 527 kts 73°
2026-04-25 18:35 46.42405 -48.25462 36466 ft 527 kts 73°
2026-04-25 18:36 46.44755 -48.15366 36467 ft 528 kts 73°
2026-04-25 18:36 46.47104 -48.05231 36473 ft 529 kts 73°
2026-04-25 18:37 46.49430 -47.95156 36474 ft 529 kts 73°
2026-04-25 18:37 46.51761 -47.85008 36477 ft 530 kts 73°
2026-04-25 18:38 46.54088 -47.74821 36477 ft 530 kts 74°
2026-04-25 18:38 46.56413 -47.64596 36484 ft 531 kts 74°
2026-04-25 18:39 46.58723 -47.54393 36487 ft 531 kts 74°
2026-04-25 18:39 46.61025 -47.44175 36487 ft 531 kts 74°
2026-04-25 18:40 46.63308 -47.33998 36494 ft 531 kts 74°
2026-04-25 18:40 46.65596 -47.23745 36495 ft 531 kts 74°
2026-04-25 18:41 46.67880 -47.13458 36497 ft 532 kts 75°
2026-04-25 18:41 46.70153 -47.03173 36501 ft 532 kts 75°
2026-04-25 18:42 46.72044 -46.94575 36507 ft 530 kts 75°
2026-04-25 18:42 46.73514 -46.87878 36491 ft 512 kts 75°
2026-04-25 18:42 46.74582 -46.82982 36495 ft 504 kts 75°
2026-04-25 18:43 46.76709 -46.73152 36509 ft 510 kts 75°
2026-04-25 18:43 46.78843 -46.63271 36514 ft 507 kts 75°
2026-04-25 18:44 46.80979 -46.53371 36512 ft 504 kts 76°
2026-04-25 18:44 46.83077 -46.43592 36519 ft 504 kts 76°
2026-04-25 18:45 46.85167 -46.33810 36522 ft 504 kts 76°
2026-04-25 18:45 46.87253 -46.23994 36523 ft 504 kts 76°
2026-04-25 18:46 46.89310 -46.14274 36526 ft 504 kts 76°
2026-04-25 18:46 46.91398 -46.04367 36530 ft 505 kts 76°
2026-04-25 18:47 46.93444 -45.94607 36528 ft 505 kts 76°
2026-04-25 18:47 46.95515 -45.84692 36536 ft 506 kts 77°
2026-04-25 18:48 46.97565 -45.74803 36539 ft 506 kts 77°
2026-04-25 18:48 46.99603 -45.64934 36542 ft 505 kts 77°
2026-04-25 18:49 47.01629 -45.55074 36549 ft 505 kts 77°
2026-04-25 18:49 47.03649 -45.45195 36547 ft 505 kts 77°
2026-04-25 18:50 47.05656 -45.35337 36543 ft 505 kts 77°
2026-04-25 18:50 47.07619 -45.25640 36544 ft 505 kts 77°
2026-04-25 18:51 47.09279 -45.17408 36543 ft 505 kts 77°
2026-04-25 18:51 47.11600 -45.05830 36543 ft 505 kts 77°
2026-04-25 18:52 47.13579 -44.95912 36553 ft 505 kts 78°
2026-04-25 18:52 47.15544 -44.86005 36554 ft 505 kts 78°
2026-04-25 18:53 47.17505 -44.76076 36564 ft 505 kts 78°
2026-04-25 18:53 47.19457 -44.66140 36563 ft 505 kts 78°
2026-04-25 18:54 47.22358 -44.51275 36567 ft 505 kts 78°
2026-04-25 18:55 47.24296 -44.41281 36569 ft 505 kts 78°
2026-04-25 18:55 47.26221 -44.31305 36576 ft 504 kts 78°
2026-04-25 18:56 47.28134 -44.21335 36577 ft 504 kts 78°
2026-04-25 18:56 47.30040 -44.11349 36578 ft 504 kts 78°
2026-04-25 18:57 47.31934 -44.01379 36585 ft 504 kts 79°
2026-04-25 18:57 47.33804 -43.91491 36586 ft 504 kts 79°
2026-04-25 18:58 47.35680 -43.81502 36588 ft 505 kts 79°
2026-04-25 18:58 47.38483 -43.66483 36596 ft 505 kts 79°
2026-04-25 18:59 47.42193 -43.46412 36602 ft 505 kts 79°
2026-04-25 19:00 47.44950 -43.31363 36606 ft 505 kts 80°
2026-04-25 19:01 47.47692 -43.16266 36613 ft 506 kts 80°
2026-04-25 19:01 47.49506 -43.06207 36616 ft 506 kts 80°
2026-04-25 19:02 47.52210 -42.91111 36624 ft 506 kts 80°
2026-04-25 19:03 47.54322 -42.79248 36625 ft 505 kts 80°
2026-04-25 19:03 47.56688 -42.65839 36629 ft 505 kts 80°
2026-04-25 19:04 47.59343 -42.50688 36615 ft 505 kts 81°
2026-04-25 19:05 47.62851 -42.30458 36595 ft 504 kts 81°
2026-04-25 19:06 47.64589 -42.20348 36596 ft 504 kts 81°
2026-04-25 19:07 47.69803 -41.89670 36605 ft 504 kts 81°
2026-04-25 19:08 47.72345 -41.74506 36614 ft 504 kts 81°
2026-04-25 19:09 47.75139 -41.57685 36617 ft 504 kts 81°
2026-04-25 19:10 47.78194 -41.39102 36624 ft 505 kts 82°
2026-04-25 19:10 47.79865 -41.28851 36624 ft 506 kts 82°
2026-04-25 19:11 47.81506 -41.18716 36624 ft 507 kts 82°
2026-04-25 19:11 47.83152 -41.08498 36631 ft 507 kts 82°
2026-04-25 19:12 47.84788 -40.98272 36634 ft 508 kts 82°
2026-04-25 19:12 47.86420 -40.88011 36634 ft 508 kts 82°
2026-04-25 19:13 47.88046 -40.77721 36641 ft 509 kts 82°
2026-04-25 19:13 47.89387 -40.69185 36643 ft 509 kts 82°
2026-04-25 19:14 47.90997 -40.58886 36643 ft 509 kts 82°
2026-04-25 19:14 47.92596 -40.48591 36649 ft 509 kts 82°
2026-04-25 19:15 47.94441 -40.36618 36652 ft 509 kts 82°
2026-04-25 19:15 47.95764 -40.27985 36652 ft 509 kts 82°
2026-04-25 19:16 47.97337 -40.17655 36659 ft 509 kts 83°
2026-04-25 19:16 47.98896 -40.07342 36662 ft 509 kts 83°
2026-04-25 19:17 48.00100 -39.96984 36661 ft 503 kts 89°
2026-04-25 19:17 48.00624 -39.86661 36665 ft 500 kts 93°
2026-04-25 19:18 48.01027 -39.76279 36675 ft 500 kts 93°
2026-04-25 19:18 48.01435 -39.65890 36667 ft 500 kts 93°
2026-04-25 19:19 48.01845 -39.55499 36678 ft 500 kts 92°
2026-04-25 19:19 48.02251 -39.45125 36684 ft 499 kts 92°
2026-04-25 19:20 48.02648 -39.34756 36685 ft 499 kts 93°
2026-04-25 19:20 48.03034 -39.24414 36688 ft 498 kts 93°
2026-04-25 19:21 48.03411 -39.14064 36714 ft 498 kts 93°
2026-04-25 19:21 48.03958 -38.98556 36744 ft 498 kts 93°
2026-04-25 19:22 48.04313 -38.88193 36747 ft 498 kts 93°
2026-04-25 19:23 48.04825 -38.72722 36755 ft 498 kts 93°
2026-04-25 19:23 48.05317 -38.57182 36760 ft 498 kts 93°
2026-04-25 19:24 48.05634 -38.46824 36763 ft 498 kts 93°
2026-04-25 19:25 48.06239 -38.26156 36765 ft 499 kts 93°
2026-04-25 19:25 48.06530 -38.15697 36775 ft 499 kts 93°
2026-04-25 19:26 48.06811 -38.05291 36776 ft 500 kts 93°
2026-04-25 19:26 48.07082 -37.94897 36776 ft 500 kts 93°
2026-04-25 19:27 48.07301 -37.86243 36774 ft 500 kts 94°
2026-04-25 19:27 48.07595 -37.74164 36781 ft 500 kts 94°
2026-04-25 19:28 48.07838 -37.63755 36783 ft 499 kts 94°
2026-04-25 19:28 48.08072 -37.53358 36789 ft 499 kts 94°
2026-04-25 19:29 48.08296 -37.42966 36792 ft 498 kts 94°
2026-04-25 19:29 48.08510 -37.32609 36793 ft 498 kts 94°
2026-04-25 19:30 48.08714 -37.22256 36819 ft 497 kts 94°
2026-04-25 19:30 48.08908 -37.11886 36884 ft 498 kts 94°
2026-04-25 19:31 48.09095 -37.01542 36958 ft 497 kts 94°
2026-04-25 19:31 48.09271 -36.91161 37017 ft 497 kts 94°
2026-04-25 19:32 48.09438 -36.80901 37030 ft 497 kts 94°
2026-04-25 19:32 48.09570 -36.72222 37033 ft 497 kts 94°
2026-04-25 19:33 48.09744 -36.60181 37033 ft 497 kts 94°
2026-04-25 19:33 48.09884 -36.49735 37033 ft 498 kts 94°
2026-04-25 19:34 48.10015 -36.39420 37033 ft 499 kts 94°
2026-04-25 19:34 48.10135 -36.29025 37032 ft 499 kts 94°
2026-04-25 19:35 48.10248 -36.18572 37040 ft 499 kts 94°
2026-04-25 19:35 48.10350 -36.08217 37033 ft 500 kts 94°
2026-04-25 19:36 48.10443 -35.97801 37042 ft 500 kts 94°
2026-04-25 19:36 48.10527 -35.87398 37044 ft 500 kts 94°
2026-04-25 19:37 48.10602 -35.76980 37040 ft 500 kts 95°
2026-04-25 19:37 48.10666 -35.66568 37041 ft 499 kts 95°
2026-04-25 19:38 48.10723 -35.56171 37045 ft 498 kts 95°
2026-04-25 19:38 48.10768 -35.45776 37045 ft 498 kts 95°
2026-04-25 19:39 48.10805 -35.35424 37038 ft 497 kts 95°
2026-04-25 19:39 48.10832 -35.25067 37043 ft 497 kts 95°
2026-04-25 19:40 48.10849 -35.14724 37043 ft 496 kts 95°
2026-04-25 19:40 48.10858 -35.04391 37041 ft 496 kts 95°
2026-04-25 19:41 48.10857 -34.94051 37042 ft 495 kts 95°
2026-04-25 19:41 48.10851 -34.87229 37047 ft 495 kts 95°
2026-04-25 19:42 48.10828 -34.73512 37044 ft 494 kts 95°
2026-04-25 19:42 48.10801 -34.63212 37042 ft 493 kts 95°
2026-04-25 19:43 48.10763 -34.52936 37039 ft 493 kts 95°
2026-04-25 19:43 48.10717 -34.42648 37045 ft 493 kts 95°
2026-04-25 19:44 48.10662 -34.32395 37042 ft 492 kts 95°
2026-04-25 19:44 48.10596 -34.22131 37052 ft 492 kts 95°
2026-04-25 19:45 48.10523 -34.11866 37055 ft 492 kts 95°
2026-04-25 19:45 48.10441 -34.01676 37053 ft 492 kts 95°
2026-04-25 19:46 48.10349 -33.91422 37053 ft 492 kts 95°
2026-04-25 19:46 48.10248 -33.81178 37055 ft 492 kts 95°
2026-04-25 19:47 48.10138 -33.70947 37051 ft 492 kts 95°
2026-04-25 19:47 48.10018 -33.60685 37055 ft 492 kts 95°
2026-04-25 19:48 48.09889 -33.50451 37054 ft 492 kts 95°
2026-04-25 19:48 48.09752 -33.40197 37052 ft 492 kts 95°
2026-04-25 19:49 48.09655 -33.33409 37054 ft 492 kts 95°
2026-04-25 19:49 48.09448 -33.19691 37049 ft 492 kts 95°
2026-04-25 19:50 48.09197 -33.04316 37057 ft 492 kts 95°
2026-04-25 19:51 48.09018 -32.94049 37061 ft 492 kts 95°
2026-04-25 19:51 48.08831 -32.83804 37060 ft 492 kts 95°
2026-04-25 19:52 48.08636 -32.73641 37061 ft 492 kts 95°
2026-04-25 19:52 48.08430 -32.63378 37060 ft 492 kts 95°
2026-04-25 19:53 48.08215 -32.53151 37060 ft 491 kts 95°
2026-04-25 19:53 48.07992 -32.42907 37063 ft 491 kts 95°
2026-04-25 19:54 48.07760 -32.32692 37064 ft 491 kts 95°
2026-04-25 19:54 48.07519 -32.22472 37060 ft 491 kts 95°
2026-04-25 19:55 48.07270 -32.12335 37064 ft 490 kts 95°
2026-04-25 19:55 48.07009 -32.02043 37062 ft 490 kts 95°
2026-04-25 19:56 48.06741 -31.91848 37061 ft 490 kts 95°
2026-04-25 19:56 48.06465 -31.81709 37060 ft 490 kts 95°
2026-04-25 19:57 48.06179 -31.71508 37060 ft 490 kts 95°
2026-04-25 19:57 48.05881 -31.61234 37060 ft 491 kts 95°
2026-04-25 19:58 48.05578 -31.51090 37062 ft 491 kts 95°
2026-04-25 19:58 48.05262 -31.40821 37068 ft 491 kts 95°
2026-04-25 19:59 48.04940 -31.30662 37069 ft 492 kts 95°
2026-04-25 19:59 48.04608 -31.20421 37069 ft 493 kts 95°
2026-04-25 20:00 48.04265 -31.10172 37071 ft 494 kts 95°
2026-04-25 20:00 48.03912 -30.99906 37104 ft 494 kts 95°
2026-04-25 20:01 48.03366 -30.84491 37109 ft 495 kts 95°
2026-04-25 20:01 48.03055 -30.75940 37110 ft 496 kts 95°
2026-04-25 20:02 48.02670 -30.65628 37105 ft 496 kts 95°
2026-04-25 20:02 48.02276 -30.55323 37108 ft 497 kts 95°
2026-04-25 20:03 48.01873 -30.45003 37111 ft 497 kts 95°
2026-04-25 20:03 48.01460 -30.34666 37113 ft 497 kts 95°
2026-04-25 20:04 48.00583 -30.13438 37110 ft 498 kts 95°
2026-04-25 20:05 48.00163 -30.03094 37107 ft 498 kts 94°
2026-04-25 20:05 48.00263 -29.92717 37110 ft 499 kts 88°
2026-04-25 20:06 48.00715 -29.82343 37109 ft 499 kts 87°
2026-04-25 20:06 48.01170 -29.71970 37109 ft 499 kts 88°
2026-04-25 20:07 48.01601 -29.61598 37101 ft 499 kts 88°
2026-04-25 20:07 48.02014 -29.51223 37113 ft 500 kts 88°
2026-04-25 20:08 48.02419 -29.40774 37109 ft 499 kts 88°
2026-04-25 20:08 48.02813 -29.30404 37112 ft 499 kts 88°
2026-04-25 20:09 48.03196 -29.20047 37120 ft 499 kts 88°
2026-04-25 20:09 48.03571 -29.09663 37118 ft 499 kts 88°
2026-04-25 20:10 48.03932 -28.99397 37115 ft 498 kts 88°
2026-04-25 20:10 48.04290 -28.88961 37115 ft 498 kts 88°
2026-04-25 20:11 48.04638 -28.78559 37120 ft 497 kts 88°
2026-04-25 20:11 48.04978 -28.68114 37114 ft 498 kts 88°
2026-04-25 20:12 48.05304 -28.57761 37114 ft 498 kts 88°
2026-04-25 20:12 48.05518 -28.50832 37115 ft 498 kts 88°
2026-04-25 20:13 48.05933 -28.36942 37117 ft 497 kts 88°
2026-04-25 20:13 48.06231 -28.26621 37114 ft 497 kts 88°
2026-04-25 20:14 48.06525 -28.16106 37115 ft 497 kts 88°
2026-04-25 20:14 48.06813 -28.05472 37115 ft 497 kts 88°
2026-04-25 20:15 48.07082 -27.95161 37119 ft 497 kts 88°
2026-04-25 20:15 48.07350 -27.84526 37115 ft 497 kts 88°
2026-04-25 20:16 48.07601 -27.74193 37118 ft 497 kts 88°
2026-04-25 20:16 48.07843 -27.63841 37121 ft 497 kts 88°
2026-04-25 20:17 48.08075 -27.53486 37114 ft 497 kts 88°
2026-04-25 20:17 48.08297 -27.43137 37119 ft 497 kts 88°
2026-04-25 20:18 48.08510 -27.32749 37114 ft 497 kts 88°
2026-04-25 20:18 48.08715 -27.22364 37115 ft 496 kts 88°
2026-04-25 20:19 48.08912 -27.11934 37114 ft 496 kts 88°
2026-04-25 20:19 48.09097 -27.01572 37123 ft 496 kts 88°
2026-04-25 20:20 48.09273 -26.91259 37126 ft 496 kts 88°
2026-04-25 20:20 48.09439 -26.80928 37128 ft 495 kts 88°
2026-04-25 20:21 48.09596 -26.70619 37127 ft 495 kts 88°
2026-04-25 20:21 48.09743 -26.60283 37130 ft 496 kts 88°
2026-04-25 20:22 48.09836 -26.53441 37125 ft 495 kts 88°
2026-04-25 20:22 48.10010 -26.39644 37125 ft 495 kts 89°
2026-04-25 20:23 48.10130 -26.29324 37125 ft 495 kts 89°
2026-04-25 20:23 48.10241 -26.19004 37126 ft 495 kts 89°
2026-04-25 20:24 48.10342 -26.08760 37125 ft 495 kts 89°
2026-04-25 20:24 48.10435 -25.98450 37128 ft 495 kts 89°
2026-04-25 20:25 48.10518 -25.88129 37127 ft 495 kts 89°
2026-04-25 20:25 48.10593 -25.77808 37125 ft 495 kts 89°
2026-04-25 20:26 48.10659 -25.67490 37126 ft 495 kts 89°
2026-04-25 20:26 48.10714 -25.57180 37132 ft 495 kts 89°
2026-04-25 20:27 48.10760 -25.46845 37136 ft 494 kts 89°
2026-04-25 20:27 48.10798 -25.36535 37136 ft 494 kts 89°
2026-04-25 20:28 48.10826 -25.26240 37135 ft 494 kts 89°
2026-04-25 20:28 48.10844 -25.16286 37134 ft 493 kts 89°
2026-04-25 20:29 48.10854 -25.06011 37129 ft 493 kts 89°
2026-04-25 20:29 48.10855 -24.95749 37134 ft 492 kts 89°
2026-04-25 20:30 48.10846 -24.85499 37148 ft 492 kts 89°
2026-04-25 20:30 48.10829 -24.75245 37153 ft 492 kts 90°
2026-04-25 20:31 48.10802 -24.65078 37154 ft 491 kts 90°
2026-04-25 20:31 48.10766 -24.54768 37153 ft 491 kts 90°
2026-04-25 20:32 48.10722 -24.44610 37153 ft 490 kts 90°
2026-04-25 20:32 48.10669 -24.34408 37154 ft 490 kts 90°
2026-04-25 20:33 48.10606 -24.24184 37153 ft 490 kts 90°
2026-04-25 20:33 48.10559 -24.17353 37154 ft 490 kts 90°
2026-04-25 20:34 48.10468 -24.05410 37153 ft 490 kts 90°
2026-04-25 20:34 48.10380 -23.95279 37154 ft 490 kts 90°
2026-04-25 20:35 48.10283 -23.85059 37154 ft 490 kts 90°
2026-04-25 20:35 48.10177 -23.74851 37153 ft 489 kts 90°
2026-04-25 20:36 48.10062 -23.64652 37154 ft 489 kts 90°
2026-04-25 20:36 48.09939 -23.54450 37154 ft 490 kts 90°
2026-04-25 20:37 48.09805 -23.44240 37154 ft 490 kts 90°
2026-04-25 20:37 48.09663 -23.34046 37158 ft 489 kts 91°
2026-04-25 20:38 48.09513 -23.23851 37162 ft 489 kts 91°
2026-04-25 20:38 48.09352 -23.13652 37166 ft 489 kts 91°
2026-04-25 20:39 48.09183 -23.03483 37164 ft 489 kts 91°
2026-04-25 20:39 48.09036 -22.95007 37160 ft 489 kts 91°
2026-04-25 20:40 48.08818 -22.83108 37167 ft 489 kts 92°
2026-04-25 20:40 48.08622 -22.72924 37166 ft 489 kts 92°
2026-04-25 20:41 48.08416 -22.62738 37158 ft 489 kts 92°
2026-04-25 20:41 48.08202 -22.52562 37168 ft 489 kts 92°
2026-04-25 20:42 48.07978 -22.42389 37175 ft 489 kts 92°
2026-04-25 20:42 48.07746 -22.32195 37176 ft 489 kts 92°
2026-04-25 20:43 48.07504 -22.22023 37176 ft 489 kts 92°
2026-04-25 20:43 48.07254 -22.11840 37167 ft 489 kts 93°
2026-04-25 20:44 48.06997 -22.01742 37176 ft 489 kts 93°
2026-04-25 20:44 48.06729 -21.91573 37171 ft 489 kts 93°
2026-04-25 20:45 48.06451 -21.81395 37176 ft 489 kts 93°
2026-04-25 20:45 48.06166 -21.71226 37176 ft 489 kts 93°
2026-04-25 20:46 48.05871 -21.61062 37174 ft 488 kts 93°
2026-04-25 20:46 48.05568 -21.50902 37176 ft 488 kts 94°
2026-04-25 20:47 48.05257 -21.40749 37176 ft 488 kts 94°
2026-04-25 20:47 48.04935 -21.30594 37171 ft 488 kts 94°
2026-04-25 20:48 48.04606 -21.20447 37168 ft 488 kts 94°
2026-04-25 20:48 48.04266 -21.10294 37173 ft 487 kts 94°
2026-04-25 20:49 48.03919 -21.00166 37170 ft 487 kts 94°
2026-04-25 20:49 48.03563 -20.90045 37176 ft 487 kts 95°
2026-04-25 20:50 48.03198 -20.79926 37170 ft 487 kts 95°
2026-04-25 20:50 48.02825 -20.69811 37169 ft 487 kts 95°
2026-04-25 20:51 48.02442 -20.59702 37167 ft 487 kts 95°
2026-04-25 20:51 48.02053 -20.49637 37176 ft 486 kts 95°
2026-04-25 20:52 48.01720 -20.41241 37177 ft 486 kts 96°
2026-04-25 20:52 48.01244 -20.29440 37176 ft 487 kts 96°
2026-04-25 20:53 48.00827 -20.19332 37177 ft 486 kts 96°
2026-04-25 20:53 48.00400 -20.09231 37167 ft 486 kts 96°
2026-04-25 20:54 48.00061 -19.99123 37176 ft 487 kts 92°
2026-04-25 20:54 48.00206 -19.88977 37176 ft 488 kts 90°
2026-04-25 20:55 48.00421 -19.78900 37169 ft 488 kts 90°
2026-04-25 20:55 48.00625 -19.68744 37176 ft 488 kts 90°
2026-04-25 20:56 48.00817 -19.58592 37173 ft 488 kts 91°
2026-04-25 20:56 48.00997 -19.48445 37176 ft 488 kts 91°
2026-04-25 20:57 48.01168 -19.38295 37173 ft 488 kts 91°
2026-04-25 20:57 48.01329 -19.28146 37172 ft 488 kts 91°
2026-04-25 20:58 48.01482 -19.18012 37174 ft 487 kts 91°
2026-04-25 20:58 48.01626 -19.07876 37169 ft 487 kts 91°
2026-04-25 20:59 48.01769 -18.97098 37171 ft 487 kts 91°
2026-04-25 20:59 48.01912 -18.85518 37177 ft 487 kts 92°
2026-04-25 21:00 48.01990 -18.78748 37177 ft 487 kts 92°
2026-04-25 21:01 48.02184 -18.60178 37179 ft 487 kts 92°
2026-04-25 21:01 48.02275 -18.50046 37189 ft 486 kts 92°
2026-04-25 21:02 48.02358 -18.39981 37177 ft 487 kts 92°
2026-04-25 21:02 48.02433 -18.29848 37189 ft 487 kts 92°
2026-04-25 21:03 48.02499 -18.19723 37189 ft 487 kts 93°
2026-04-25 21:03 48.02555 -18.09576 37182 ft 487 kts 93°
2026-04-25 21:04 48.02603 -17.99433 37176 ft 487 kts 93°
2026-04-25 21:04 48.02642 -17.89294 37189 ft 487 kts 93°
2026-04-25 21:05 48.02672 -17.79237 37178 ft 487 kts 93°
2026-04-25 21:05 48.02693 -17.69030 37181 ft 487 kts 93°
2026-04-25 21:06 48.02705 -17.58898 37180 ft 487 kts 93°
2026-04-25 21:06 48.02709 -17.48789 37184 ft 487 kts 93°
2026-04-25 21:07 48.02703 -17.38667 37177 ft 486 kts 94°
2026-04-25 21:07 48.02688 -17.28554 37179 ft 486 kts 94°
2026-04-25 21:08 48.02664 -17.18423 37178 ft 486 kts 94°
2026-04-25 21:08 48.02632 -17.08316 37175 ft 486 kts 94°
2026-04-25 21:09 48.02567 -16.93159 37185 ft 486 kts 94°
2026-04-25 21:09 48.02513 -16.83044 37178 ft 486 kts 94°
2026-04-25 21:10 48.02449 -16.72936 37180 ft 486 kts 94°
2026-04-25 21:10 48.02378 -16.62825 37195 ft 486 kts 94°
2026-04-25 21:11 48.02298 -16.52690 37198 ft 486 kts 94°
2026-04-25 21:11 48.02208 -16.42579 37199 ft 486 kts 95°
2026-04-25 21:12 48.02109 -16.32453 37201 ft 488 kts 95°
2026-04-25 21:12 48.02036 -16.25693 37203 ft 495 kts 95°
2026-04-25 21:13 48.01877 -16.11790 37200 ft 503 kts 95°
2026-04-25 21:13 48.01748 -16.01317 37199 ft 503 kts 95°
2026-04-25 21:14 48.01610 -15.90871 37201 ft 503 kts 95°
2026-04-25 21:14 48.01461 -15.80396 37200 ft 503 kts 95°
2026-04-25 21:15 48.01302 -15.69933 37199 ft 503 kts 95°
2026-04-25 21:15 48.01134 -15.59476 37200 ft 503 kts 95°
2026-04-25 21:16 48.00958 -15.49011 37200 ft 503 kts 95°
2026-04-25 21:16 48.00772 -15.38568 37199 ft 502 kts 95°
2026-04-25 21:17 48.00610 -15.29869 37199 ft 502 kts 95°
2026-04-25 21:17 48.00408 -15.19451 37199 ft 501 kts 95°
2026-04-25 21:18 48.00196 -15.09019 37201 ft 501 kts 95°
2026-04-25 21:18 47.99929 -14.98631 37198 ft 499 kts 98°
2026-04-25 21:19 47.99393 -14.88261 37199 ft 501 kts 98°
2026-04-25 21:19 47.98825 -14.77883 37200 ft 501 kts 98°
2026-04-25 21:20 47.98352 -14.69270 37200 ft 500 kts 98°
2026-04-25 21:20 47.97679 -14.57161 37199 ft 500 kts 98°
2026-04-25 21:21 47.97095 -14.46815 37199 ft 499 kts 98°
2026-04-25 21:21 47.96502 -14.36478 37200 ft 498 kts 99°
2026-04-25 21:22 47.95900 -14.26172 37201 ft 498 kts 98°
2026-04-25 21:22 47.95294 -14.15934 37199 ft 497 kts 99°
2026-04-25 21:23 47.94675 -14.05636 37200 ft 497 kts 99°
2026-04-25 21:23 47.94047 -13.95342 37200 ft 497 kts 99°
2026-04-25 21:24 47.93411 -13.85062 37199 ft 497 kts 99°
2026-04-25 21:24 47.92764 -13.74764 37199 ft 497 kts 99°
2026-04-25 21:25 47.92107 -13.64473 37200 ft 498 kts 99°
2026-04-25 21:25 47.91441 -13.54193 37199 ft 497 kts 99°
2026-04-25 21:26 47.90769 -13.43962 37201 ft 498 kts 99°
2026-04-25 21:26 47.90086 -13.33688 37199 ft 498 kts 99°
2026-04-25 21:27 47.89392 -13.23396 37199 ft 498 kts 99°
2026-04-25 21:27 47.88690 -13.13113 37200 ft 498 kts 99°
2026-04-25 21:28 47.87977 -13.02820 37199 ft 498 kts 99°
2026-04-25 21:28 47.87258 -12.92550 37200 ft 499 kts 99°
2026-04-25 21:29 47.86528 -12.82263 37200 ft 499 kts 99°
2026-04-25 21:29 47.85787 -12.71969 37201 ft 499 kts 99°
2026-04-25 21:30 47.85038 -12.61684 37200 ft 498 kts 99°
2026-04-25 21:30 47.84410 -12.53145 37200 ft 498 kts 99°
2026-04-25 21:31 47.83511 -12.41097 37201 ft 498 kts 99°
2026-04-25 21:31 47.82712 -12.30526 37199 ft 498 kts 99°
2026-04-25 21:32 47.81920 -12.20177 37200 ft 498 kts 99°
2026-04-25 21:32 47.81133 -12.10012 37200 ft 497 kts 99°
2026-04-25 21:33 47.80331 -11.99776 37200 ft 497 kts 99°
2026-04-25 21:33 47.79520 -11.89547 37200 ft 497 kts 99°
2026-04-25 21:34 47.78698 -11.79301 37200 ft 497 kts 99°
2026-04-25 21:34 47.77868 -11.69076 37200 ft 497 kts 99°
2026-04-25 21:35 47.77031 -11.58860 37199 ft 497 kts 100°
2026-04-25 21:35 47.76182 -11.48627 37199 ft 498 kts 100°
2026-04-25 21:36 47.75324 -11.38400 37199 ft 498 kts 100°
2026-04-25 21:36 47.74458 -11.28172 37200 ft 499 kts 100°
2026-04-25 21:37 47.73728 -11.19651 37199 ft 499 kts 100°
2026-04-25 21:37 47.72692 -11.07677 37199 ft 499 kts 100°
2026-04-25 21:38 47.71797 -10.97455 37199 ft 499 kts 100°
2026-04-25 21:38 47.70893 -10.87223 37199 ft 499 kts 100°
2026-04-25 21:39 47.69977 -10.76968 37199 ft 500 kts 100°
2026-04-25 21:39 47.69052 -10.66716 37199 ft 500 kts 100°
2026-04-25 21:40 47.68117 -10.56476 37199 ft 500 kts 100°
2026-04-25 21:40 47.67180 -10.46297 37200 ft 500 kts 100°
2026-04-25 21:41 47.66227 -10.36057 37199 ft 500 kts 100°
2026-04-25 21:41 47.65265 -10.25811 37200 ft 500 kts 100°
2026-04-25 21:42 47.64293 -10.15563 37199 ft 501 kts 101°
2026-04-25 21:42 47.63311 -10.05314 37201 ft 501 kts 101°
2026-04-25 21:43 47.62320 -9.95082 37201 ft 501 kts 101°
2026-04-25 21:43 47.61320 -9.84842 37199 ft 501 kts 101°
2026-04-25 21:44 47.60312 -9.74617 37199 ft 501 kts 101°
2026-04-25 21:45 47.58781 -9.59277 37200 ft 501 kts 101°
2026-04-25 21:45 47.57749 -9.49043 37200 ft 501 kts 101°
2026-04-25 21:46 47.56708 -9.38821 37196 ft 501 kts 101°
2026-04-25 21:46 47.55658 -9.28599 37187 ft 501 kts 101°
2026-04-25 21:47 47.54598 -9.18376 37181 ft 501 kts 101°
2026-04-25 21:47 47.53538 -9.08228 37181 ft 501 kts 101°
2026-04-25 21:48 47.52463 -8.98031 37192 ft 502 kts 101°
2026-04-25 21:48 47.51376 -8.87821 37193 ft 502 kts 100°
2026-04-25 21:49 47.50365 -8.77578 37198 ft 503 kts 97°
2026-04-25 21:49 47.49981 -8.67235 37198 ft 503 kts 91°
2026-04-25 21:50 47.50005 -8.56864 37200 ft 503 kts 90°
2026-04-25 21:50 47.50038 -8.46492 37200 ft 503 kts 90°
2026-04-25 21:51 47.50050 -8.36124 37206 ft 503 kts 90°
2026-04-25 21:51 47.50048 -8.25752 37214 ft 503 kts 90°
2026-04-25 21:52 47.50036 -8.15373 37218 ft 504 kts 91°
2026-04-25 21:52 47.50013 -8.04996 37218 ft 504 kts 91°
2026-04-25 21:53 47.50285 -7.94594 37219 ft 504 kts 85°
2026-04-25 21:53 47.50865 -7.84237 37226 ft 504 kts 85°
2026-04-25 21:54 47.51470 -7.73662 37227 ft 503 kts 85°
2026-04-25 21:54 47.52045 -7.63302 37229 ft 503 kts 85°
2026-04-25 21:55 47.52605 -7.52974 37228 ft 502 kts 85°
2026-04-25 21:55 47.53154 -7.42639 37230 ft 502 kts 85°
2026-04-25 21:56 47.53693 -7.32312 37225 ft 503 kts 85°
2026-04-25 21:56 47.54223 -7.21967 37227 ft 503 kts 85°
2026-04-25 21:57 47.54729 -7.11947 37228 ft 502 kts 85°
2026-04-25 21:57 47.55241 -7.01626 37230 ft 502 kts 85°
2026-04-25 21:58 47.55744 -6.91277 37230 ft 502 kts 85°
2026-04-25 21:58 47.56232 -6.81027 37230 ft 502 kts 85°
2026-04-25 21:59 47.56716 -6.70690 37230 ft 502 kts 85°
2026-04-25 21:59 47.57191 -6.60362 37225 ft 502 kts 85°
2026-04-25 22:00 47.57885 -6.44869 37228 ft 501 kts 85°
2026-04-25 22:00 47.58335 -6.34547 37228 ft 501 kts 85°
2026-04-25 22:01 47.58777 -6.24224 37230 ft 502 kts 85°
2026-04-25 22:01 47.59067 -6.17310 37228 ft 502 kts 85°
2026-04-25 22:02 47.59563 -6.05288 37219 ft 502 kts 85°
2026-04-25 22:02 47.59968 -5.95186 37221 ft 501 kts 85°
2026-04-25 22:03 47.60375 -5.84845 37223 ft 501 kts 85°
2026-04-25 22:03 47.60771 -5.74529 37228 ft 501 kts 85°
2026-04-25 22:04 47.61158 -5.64208 37230 ft 501 kts 85°
2026-04-25 22:04 47.61533 -5.53955 37229 ft 501 kts 85°
2026-04-25 22:05 47.61902 -5.43620 37227 ft 500 kts 85°
2026-04-25 22:05 47.62260 -5.33310 37230 ft 500 kts 85°
2026-04-25 22:06 47.62610 -5.23006 37230 ft 500 kts 85°
2026-04-25 22:06 47.62950 -5.12693 37225 ft 499 kts 85°
2026-04-25 22:07 47.63224 -5.04148 37227 ft 499 kts 85°
2026-04-25 22:07 47.63601 -4.92093 37225 ft 498 kts 85°
2026-04-25 22:08 47.63913 -4.81816 37226 ft 498 kts 85°
2026-04-25 22:08 47.64215 -4.71547 37230 ft 498 kts 85°
2026-04-25 22:09 47.64507 -4.61278 37227 ft 497 kts 85°
2026-04-25 22:09 47.64789 -4.51089 37230 ft 497 kts 85°
2026-04-25 22:10 47.65064 -4.40794 37228 ft 497 kts 85°
2026-04-25 22:10 47.65329 -4.30542 37228 ft 497 kts 86°
2026-04-25 22:11 47.65585 -4.20283 37225 ft 497 kts 86°
2026-04-25 22:11 47.65832 -4.10022 37217 ft 496 kts 86°
2026-04-25 22:12 47.66069 -3.99763 37204 ft 496 kts 86°
2026-04-25 22:12 47.66260 -3.91241 37194 ft 496 kts 86°
2026-04-25 22:13 47.66517 -3.79250 37178 ft 496 kts 86°
2026-04-25 22:13 47.66727 -3.68989 37168 ft 496 kts 86°
2026-04-25 22:14 47.66927 -3.58740 37160 ft 496 kts 86°
2026-04-25 22:14 47.67120 -3.48481 37153 ft 496 kts 86°
2026-04-25 22:15 47.67301 -3.38301 37145 ft 496 kts 86°
2026-04-25 22:16 47.67557 -3.22928 37149 ft 496 kts 86°
2026-04-25 22:16 47.67717 -3.12681 37157 ft 496 kts 86°
2026-04-25 22:17 47.67868 -3.02430 37176 ft 496 kts 87°
2026-04-25 22:17 47.68010 -2.92157 37191 ft 496 kts 87°
2026-04-25 22:18 47.68144 -2.81924 37197 ft 495 kts 87°
2026-04-25 22:18 47.68268 -2.71690 37201 ft 495 kts 87°
2026-04-25 22:19 47.68383 -2.61442 37201 ft 495 kts 86°
2026-04-25 22:19 47.68869 -2.51249 37201 ft 493 kts 81°
2026-04-25 22:20 47.70064 -2.41246 37200 ft 491 kts 75°
2026-04-25 22:20 47.71775 -2.31485 37202 ft 490 kts 73°
2026-04-25 22:21 47.73547 -2.21672 37200 ft 490 kts 73°
2026-04-25 22:21 47.75300 -2.11865 37200 ft 490 kts 73°
2026-04-25 22:22 47.77037 -2.02048 37200 ft 491 kts 73°
2026-04-25 22:22 47.78769 -1.92194 37200 ft 491 kts 73°
2026-04-25 22:23 47.80488 -1.82354 37200 ft 491 kts 73°
2026-04-25 22:23 47.82196 -1.72518 37198 ft 491 kts 73°
2026-04-25 22:24 47.83899 -1.62662 37199 ft 491 kts 73°
2026-04-25 22:24 47.85595 -1.52789 37200 ft 491 kts 73°
2026-04-25 22:25 47.87281 -1.42918 37201 ft 491 kts 73°
2026-04-25 22:25 47.88959 -1.33039 37199 ft 491 kts 74°
2026-04-25 22:26 47.90628 -1.23157 37201 ft 491 kts 74°
2026-04-25 22:26 47.92289 -1.13265 37200 ft 491 kts 74°
2026-04-25 22:27 47.93942 -1.03363 37201 ft 491 kts 74°
2026-04-25 22:27 47.95590 -0.93431 37199 ft 491 kts 74°
2026-04-25 22:28 47.97226 -0.83515 37200 ft 491 kts 74°
2026-04-25 22:28 47.98855 -0.73590 37200 ft 492 kts 74°
2026-04-25 22:29 48.00474 -0.63666 37199 ft 492 kts 74°
2026-04-25 22:29 48.02090 -0.53698 37200 ft 493 kts 74°
2026-04-25 22:30 48.04764 -0.38869 37201 ft 492 kts 70°
2026-04-25 22:30 48.06547 -0.30751 37200 ft 491 kts 69°
2026-04-25 22:31 48.09046 -0.19266 37200 ft 492 kts 70°
2026-04-25 22:31 48.11130 -0.09504 37199 ft 492 kts 70°
2026-04-25 22:32 48.13210 0.00330 37200 ft 493 kts 70°
2026-04-25 22:32 48.15279 0.10124 37199 ft 492 kts 71°
2026-04-25 22:33 48.17321 0.19910 37199 ft 492 kts 71°
2026-04-25 22:33 48.19362 0.29737 37200 ft 492 kts 71°
2026-04-25 22:34 48.21391 0.39547 37199 ft 493 kts 71°
2026-04-25 22:34 48.23419 0.49392 37205 ft 493 kts 72°
2026-04-25 22:35 48.25440 0.59248 37208 ft 493 kts 72°
2026-04-25 22:35 48.27452 0.69110 37209 ft 494 kts 72°
2026-04-25 22:36 48.29447 0.78934 37207 ft 495 kts 72°
2026-04-25 22:36 48.31449 0.88849 37209 ft 496 kts 72°
2026-04-25 22:37 48.33455 0.98825 37208 ft 496 kts 72°
2026-04-25 22:37 48.35452 1.08815 37208 ft 497 kts 72°
2026-04-25 22:38 48.37436 1.18789 37208 ft 498 kts 72°
2026-04-25 22:38 48.39415 1.28785 37214 ft 498 kts 72°
2026-04-25 22:39 48.41386 1.38796 37218 ft 499 kts 72°
2026-04-25 22:39 48.43351 1.48829 37216 ft 499 kts 73°
2026-04-25 22:40 48.45317 1.58914 37218 ft 499 kts 73°
2026-04-25 22:40 48.47267 1.68973 37218 ft 499 kts 73°
2026-04-25 22:41 48.49209 1.79044 37219 ft 499 kts 73°
2026-04-25 22:41 48.51129 1.89043 37218 ft 499 kts 73°
2026-04-25 22:42 48.53066 1.99194 37217 ft 499 kts 73°
2026-04-25 22:42 48.54884 2.09285 37219 ft 500 kts 77°
2026-04-25 22:43 48.56069 2.19689 37224 ft 501 kts 83°
2026-04-25 22:43 48.56480 2.30195 37227 ft 501 kts 90°
2026-04-25 22:44 48.56251 2.40728 37225 ft 500 kts 93°
2026-04-25 22:44 48.55930 2.51242 37224 ft 501 kts 92°
2026-04-25 22:45 48.55617 2.61760 37230 ft 501 kts 92°
2026-04-25 22:45 48.55300 2.72282 37229 ft 501 kts 92°
2026-04-25 22:46 48.54990 2.82788 37229 ft 501 kts 91°
2026-04-25 22:46 48.54938 2.93319 37224 ft 501 kts 90°
2026-04-25 22:47 48.54932 3.03874 37229 ft 502 kts 90°
2026-04-25 22:47 48.54901 3.14433 37230 ft 502 kts 90°
2026-04-25 22:48 48.54849 3.24905 37225 ft 502 kts 90°
2026-04-25 22:48 48.54784 3.35476 37224 ft 502 kts 90°
2026-04-25 22:49 48.54721 3.44305 37219 ft 502 kts 91°
2026-04-25 22:49 48.54636 3.54860 37220 ft 502 kts 91°
2026-04-25 22:50 48.54542 3.65405 37219 ft 502 kts 91°
2026-04-25 22:50 48.54439 3.75886 37227 ft 502 kts 91°
2026-04-25 22:51 48.54326 3.86434 37229 ft 502 kts 91°
2026-04-25 22:51 48.54202 3.97000 37224 ft 502 kts 91°
2026-04-25 22:52 48.54069 4.07558 37230 ft 503 kts 91°
2026-04-25 22:52 48.53926 4.18122 37230 ft 503 kts 91°
2026-04-25 22:53 48.53774 4.28703 37218 ft 503 kts 91°
2026-04-25 22:53 48.53612 4.39260 37220 ft 503 kts 91°
2026-04-25 22:54 48.53441 4.49757 37217 ft 503 kts 91°
2026-04-25 22:54 48.53259 4.60393 37210 ft 503 kts 91°
2026-04-25 22:55 48.53069 4.70884 37209 ft 503 kts 91°
2026-04-25 22:55 48.52868 4.81462 37201 ft 503 kts 91°
2026-04-25 22:56 48.52658 4.92045 37200 ft 504 kts 91°
2026-04-25 22:56 48.52437 5.02643 37200 ft 504 kts 91°
2026-04-25 22:57 48.52207 5.13214 37200 ft 504 kts 91°
2026-04-25 22:57 48.51967 5.23812 37199 ft 504 kts 91°
2026-04-25 22:58 48.51717 5.34401 37201 ft 505 kts 91°
2026-04-25 22:58 48.51458 5.45003 37199 ft 505 kts 91°
2026-04-25 22:59 48.51189 5.55595 37192 ft 505 kts 91°
2026-04-25 22:59 48.50910 5.66188 37191 ft 505 kts 92°
2026-04-25 23:00 48.50621 5.76789 37191 ft 505 kts 92°
2026-04-25 23:00 48.50325 5.87311 37196 ft 505 kts 92°
2026-04-25 23:01 48.50017 5.97899 37200 ft 505 kts 92°
2026-04-25 23:01 48.49697 6.08514 37200 ft 505 kts 92°
2026-04-25 23:02 48.49369 6.19112 37191 ft 505 kts 92°
2026-04-25 23:02 48.49032 6.29711 37191 ft 505 kts 92°
2026-04-25 23:03 48.48685 6.40309 37187 ft 505 kts 92°
2026-04-25 23:03 48.48328 6.50900 37184 ft 505 kts 92°
2026-04-25 23:04 48.47961 6.61492 37193 ft 505 kts 92°
2026-04-25 23:04 48.47583 6.72090 37185 ft 505 kts 92°
2026-04-25 23:05 48.47198 6.82676 37193 ft 505 kts 92°
2026-04-25 23:05 48.46802 6.93267 37183 ft 505 kts 92°
2026-04-25 23:06 48.46397 7.03852 37185 ft 504 kts 92°
2026-04-25 23:06 48.45983 7.14420 37176 ft 504 kts 92°
2026-04-25 23:07 48.45558 7.24981 37177 ft 504 kts 92°
2026-04-25 23:07 48.45126 7.35540 37172 ft 504 kts 92°
2026-04-25 23:08 48.44684 7.46088 37176 ft 503 kts 92°
2026-04-25 23:08 48.44237 7.56553 37170 ft 503 kts 92°
2026-04-25 23:09 48.43778 7.67076 37169 ft 503 kts 92°
2026-04-25 23:09 48.43310 7.77607 37176 ft 503 kts 92°
2026-04-25 23:10 48.42847 7.88122 37175 ft 502 kts 92°
2026-04-25 23:10 48.42380 7.98634 37184 ft 502 kts 92°
2026-04-25 23:11 48.41900 8.09168 37179 ft 502 kts 92°
2026-04-25 23:11 48.41414 8.19655 37177 ft 502 kts 92°
2026-04-25 23:12 48.40917 8.30169 37177 ft 503 kts 92°
2026-04-25 23:12 48.40411 8.40680 37184 ft 503 kts 92°
2026-04-25 23:13 48.39894 8.51197 37180 ft 503 kts 92°
2026-04-25 23:13 48.39368 8.61718 37180 ft 504 kts 92°
2026-04-25 23:14 48.38831 8.72252 37177 ft 505 kts 92°
2026-04-25 23:14 48.38284 8.82803 37186 ft 505 kts 92°
2026-04-25 23:15 48.37728 8.93343 37181 ft 505 kts 92°
2026-04-25 23:15 48.37161 9.03909 37185 ft 505 kts 92°
2026-04-25 23:16 48.36582 9.14490 37186 ft 506 kts 92°
2026-04-25 23:16 48.35995 9.25056 37182 ft 506 kts 92°
2026-04-25 23:17 48.35404 9.35541 37174 ft 506 kts 92°
2026-04-25 23:17 48.34751 9.46969 37176 ft 506 kts 93°
2026-04-25 23:18 48.34120 9.57533 37171 ft 506 kts 94°
2026-04-25 23:18 48.32980 9.68013 37167 ft 508 kts 100°
2026-04-25 23:19 48.31437 9.78385 37175 ft 508 kts 101°
2026-04-25 23:19 48.29867 9.88774 37173 ft 508 kts 101°
2026-04-25 23:20 48.28302 9.99132 37173 ft 508 kts 101°
2026-04-25 23:20 48.26731 10.09492 37168 ft 508 kts 101°
2026-04-25 23:21 48.25150 10.19860 37175 ft 508 kts 101°
2026-04-25 23:21 48.23562 10.30213 37169 ft 508 kts 101°
2026-04-25 23:22 48.21972 10.40510 37175 ft 509 kts 101°
2026-04-25 23:23 48.19554 10.56043 37177 ft 510 kts 101°
2026-04-25 23:23 48.17928 10.66413 37172 ft 510 kts 101°
2026-04-25 23:24 48.16289 10.76789 37174 ft 511 kts 101°
2026-04-25 23:24 48.14641 10.87164 37177 ft 511 kts 102°
2026-04-25 23:25 48.12995 10.97468 37169 ft 512 kts 102°
2026-04-25 23:25 48.11313 11.07926 37171 ft 512 kts 102°
2026-04-25 23:26 48.09647 11.18214 37170 ft 512 kts 102°
2026-04-25 23:26 48.07958 11.28590 37174 ft 512 kts 102°
2026-04-25 23:27 48.06262 11.38941 37171 ft 512 kts 102°
2026-04-25 23:27 48.04554 11.49298 37172 ft 512 kts 102°
2026-04-25 23:28 48.02836 11.59656 37171 ft 512 kts 102°
2026-04-25 23:28 48.01111 11.69999 37169 ft 512 kts 102°
2026-04-25 23:29 47.99381 11.80310 37163 ft 512 kts 102°
2026-04-25 23:29 47.97638 11.90631 37142 ft 509 kts 102°
2026-04-25 23:29 47.96773 11.95730 36838 ft 503 kts 102°
2026-04-25 23:30 47.95915 12.00777 36180 ft 503 kts 102°
2026-04-25 23:30 47.95050 12.05853 35465 ft 503 kts 102°
2026-04-25 23:30 47.94180 12.10935 34653 ft 507 kts 102°
2026-04-25 23:30 47.93304 12.16054 33827 ft 510 kts 102°
2026-04-25 23:31 47.92467 12.21196 33325 ft 507 kts 101°
2026-04-25 23:31 47.91664 12.26304 33132 ft 505 kts 101°
2026-04-25 23:31 47.90864 12.31418 33139 ft 506 kts 101°
2026-04-25 23:32 47.89253 12.41645 33142 ft 507 kts 101°
2026-04-25 23:32 47.87625 12.51849 33142 ft 507 kts 101°
2026-04-25 23:33 47.85977 12.62085 33140 ft 507 kts 102°
2026-04-25 23:33 47.84488 12.72350 33129 ft 506 kts 94°
2026-04-25 23:34 47.84792 12.82734 33148 ft 501 kts 78°
2026-04-25 23:34 47.85921 12.92985 33142 ft 501 kts 78°
2026-04-25 23:35 47.87052 13.03293 33139 ft 502 kts 78°
2026-04-25 23:35 47.87951 13.11852 33142 ft 502 kts 78°
2026-04-25 23:36 47.89009 13.22145 33140 ft 502 kts 78°
2026-04-25 23:36 47.90057 13.32464 33141 ft 503 kts 78°
2026-04-25 23:37 47.91005 13.42818 33115 ft 505 kts 84°
2026-04-25 23:37 47.91071 13.47988 32969 ft 500 kts 88°
2026-04-25 23:37 47.91043 13.53213 32721 ft 496 kts 88°
2026-04-25 23:37 47.90999 13.58282 32480 ft 495 kts 88°
2026-04-25 23:38 47.90964 13.63431 32222 ft 495 kts 88°
2026-04-25 23:38 47.90939 13.68571 31973 ft 495 kts 88°
2026-04-25 23:38 47.90922 13.73726 31720 ft 495 kts 88°
2026-04-25 23:38 47.90911 13.78869 31471 ft 496 kts 88°
2026-04-25 23:39 47.90901 13.84010 31217 ft 495 kts 88°
2026-04-25 23:39 47.90889 13.89156 30967 ft 496 kts 88°
2026-04-25 23:39 47.90876 13.94304 30719 ft 496 kts 88°
2026-04-25 23:39 47.90862 13.99456 30418 ft 496 kts 88°
2026-04-25 23:40 47.90845 14.04632 29971 ft 496 kts 88°
2026-04-25 23:40 47.90826 14.09785 29384 ft 497 kts 88°
2026-04-25 23:40 47.90806 14.14936 28703 ft 497 kts 88°
2026-04-25 23:40 47.90783 14.20098 28026 ft 496 kts 88°
2026-04-25 23:41 47.90758 14.25221 27604 ft 490 kts 88°
2026-04-25 23:41 47.90731 14.30274 27090 ft 486 kts 88°
2026-04-25 23:41 47.90700 14.35313 26583 ft 482 kts 89°
2026-04-25 23:41 47.90668 14.40290 26041 ft 479 kts 89°
2026-04-25 23:42 47.90634 14.45238 25535 ft 476 kts 89°
2026-04-25 23:42 47.90600 14.50155 25061 ft 471 kts 89°
2026-04-25 23:42 47.90564 14.55033 24606 ft 467 kts 89°
2026-04-25 23:42 47.90525 14.59860 24157 ft 463 kts 89°
2026-04-25 23:43 47.90485 14.64648 23729 ft 459 kts 89°
2026-04-25 23:43 47.90443 14.69393 23282 ft 456 kts 89°
2026-04-25 23:43 47.90400 14.74099 22851 ft 452 kts 89°
2026-04-25 23:43 47.90356 14.78782 22412 ft 449 kts 89°
2026-04-25 23:44 47.90310 14.83420 21986 ft 445 kts 89°
2026-04-25 23:44 47.90262 14.88034 21550 ft 442 kts 89°
2026-04-25 23:44 47.90214 14.92544 21119 ft 439 kts 89°
2026-04-25 23:44 47.90164 14.97077 20690 ft 436 kts 89°
2026-04-25 23:45 47.90113 15.01622 20259 ft 434 kts 89°
2026-04-25 23:45 47.90058 15.06112 19830 ft 432 kts 90°
2026-04-25 23:45 47.90004 15.10583 19393 ft 429 kts 90°
2026-04-25 23:45 47.89948 15.15014 18964 ft 426 kts 89°
2026-04-25 23:46 47.89891 15.19418 18542 ft 423 kts 89°
2026-04-25 23:46 47.89834 15.23804 18126 ft 421 kts 90°
2026-04-25 23:46 47.89774 15.28151 17704 ft 418 kts 90°
2026-04-25 23:46 47.89711 15.32481 17285 ft 416 kts 90°
2026-04-25 23:47 47.89648 15.36874 17053 ft 430 kts 90°
2026-04-25 23:47 47.89641 15.41372 17058 ft 435 kts 88°
2026-04-25 23:47 47.89701 15.45873 16956 ft 431 kts 87°
2026-04-25 23:47 47.89776 15.50326 16438 ft 428 kts 87°
2026-04-25 23:48 47.89848 15.54769 15796 ft 428 kts 87°
2026-04-25 23:48 47.89914 15.59135 15297 ft 425 kts 87°
2026-04-25 23:48 47.89977 15.63586 14826 ft 420 kts 87°
2026-04-25 23:48 47.90033 15.67876 14249 ft 419 kts 88°
2026-04-25 23:49 47.90087 15.72218 13760 ft 415 kts 87°
2026-04-25 23:49 47.90136 15.76504 13234 ft 411 kts 87°
2026-04-25 23:49 47.90183 15.80760 12700 ft 408 kts 87°
2026-04-25 23:49 47.90229 15.84973 12218 ft 404 kts 87°
2026-04-25 23:50 47.90274 15.89159 11614 ft 402 kts 87°
2026-04-25 23:50 47.90315 15.93312 11080 ft 399 kts 87°
2026-04-25 23:50 47.90356 15.97431 10540 ft 396 kts 87°
2026-04-25 23:50 47.90394 16.01534 9992 ft 393 kts 87°
2026-04-25 23:51 47.90431 16.05652 9421 ft 390 kts 87°
2026-04-25 23:51 47.90465 16.09693 8914 ft 387 kts 87°
2026-04-25 23:51 47.90499 16.13717 8371 ft 385 kts 87°
2026-04-25 23:51 47.90529 16.17689 8033 ft 378 kts 87°
2026-04-25 23:52 47.90559 16.21526 7999 ft 361 kts 87°
2026-04-25 23:52 47.90585 16.25214 7998 ft 350 kts 87°
2026-04-25 23:52 47.90611 16.28835 8002 ft 349 kts 87°
2026-04-25 23:52 47.90637 16.32414 8008 ft 349 kts 87°
2026-04-25 23:53 47.90662 16.36092 8004 ft 349 kts 87°
2026-04-25 23:53 47.90685 16.39712 8003 ft 349 kts 87°
2026-04-25 23:53 47.90706 16.43346 8009 ft 350 kts 87°
2026-04-25 23:53 47.90727 16.46904 7956 ft 344 kts 87°
2026-04-25 23:54 47.90744 16.50464 7526 ft 343 kts 87°
2026-04-25 23:54 47.90762 16.54030 7015 ft 343 kts 87°
2026-04-25 23:54 47.90778 16.57551 6785 ft 334 kts 87°
2026-04-25 23:54 47.90791 16.60970 6489 ft 323 kts 87°
2026-04-25 23:55 47.90805 16.64246 6160 ft 308 kts 87°
2026-04-25 23:55 47.90815 16.67372 6055 ft 297 kts 86°
2026-04-25 23:55 47.91128 16.70353 5719 ft 282 kts 62°
2026-04-25 23:55 47.92195 16.72622 5411 ft 257 kts 34°
2026-04-25 23:56 47.93595 16.74130 5290 ft 239 kts 27°
2026-04-25 23:56 47.95016 16.75422 5019 ft 233 kts 25°
2026-04-25 23:56 47.96445 16.76681 4572 ft 235 kts 25°
2026-04-25 23:56 47.97862 16.77912 3987 ft 235 kts 25°
2026-04-25 23:57 47.99274 16.79128 3459 ft 233 kts 25°
2026-04-25 23:57 48.00735 16.79869 3144 ft 213 kts 357°
2026-04-25 23:57 48.02079 16.79339 3001 ft 190 kts 330°
2026-04-25 23:57 48.03168 16.78403 2987 ft 176 kts 326°
2026-04-25 23:58 48.04134 16.77315 2991 ft 173 kts 312°
2026-04-25 23:58 48.04850 16.75865 3001 ft 172 kts 302°
2026-04-25 23:58 48.05449 16.74317 2988 ft 171 kts 299°
2026-04-25 23:58 48.05987 16.72773 2793 ft 162 kts 297°
2026-04-25 23:59 48.06466 16.71314 2557 ft 150 kts 296°
2026-04-25 23:59 48.06920 16.69900 2375 ft 151 kts 295°
2026-04-25 23:59 48.07376 16.68481 2195 ft 151 kts 295°
2026-04-25 23:59 48.07833 16.67058 1996 ft 153 kts 295°
2026-04-26 00:00 48.08302 16.65603 1797 ft 154 kts 295°
2026-04-26 00:00 48.08767 16.64160 1590 ft 154 kts 295°
2026-04-26 00:00 48.09238 16.62721 1406 ft 154 kts 296°
2026-04-26 00:00 48.09708 16.61278 1194 ft 154 kts 296°
2026-04-26 00:01 48.10171 16.59833 984 ft 153 kts 296°
2026-04-26 00:01 48.10636 16.58395 752 ft 154 kts 295°
2026-04-26 00:01 48.11147 16.56827 628 ft 142 kts 296°
2026-04-26 00:01 48.11495 16.55748 621 ft 53 kts 296°
2026-04-26 00:02 48.11574 16.55520 631 ft 12 kts 298°
2026-04-26 00:02 48.11713 16.55271 624 ft 37 kts 316°
2026-04-26 00:02 48.11855 16.55150 624 ft 9 kts 13°
2026-04-26 00:02 48.11857 16.55151 617 ft 0 kts 14°
2026-04-26 00:03 48.11859 16.55152 629 ft 2 kts 14°
2026-04-26 00:04 48.11882 16.55195 624 ft 9 kts 88°
2026-04-26 00:04 48.11852 16.55300 630 ft 5 kts 108°
2026-04-26 00:04 48.11796 16.55476 619 ft 25 kts 117°
2026-04-26 00:04 48.11716 16.55720 629 ft 27 kts 116°
2026-04-26 00:05 48.11656 16.55910 621 ft 9 kts 98°
2026-04-26 00:05 48.11690 16.56001 627 ft 12 kts 59°
2026-04-26 00:05 48.11746 16.56104 630 ft 14 kts 31°
2026-04-26 00:05 48.11762 16.56116 623 ft 0 kts 27°